Time,TemperatureF,DewpointF,PressureIn,WindDirection,WindDirectionDegrees,WindSpeedMPH,WindSpeedGustMPH,Humidity,HourlyPrecipIn,Conditions,Clouds,dailyrainin,SoftwareType,DateUTC
2013-10-03 00:11:00,47.0,45.0,28.11,NW,314,3.0,8.0,91,0.00,,,0.03,,2013-10-03 07:11:00,
2013-10-03 00:22:00,48.0,45.0,28.12,WNW,284,3.0,7.0,91,0.00,,,0.03,,2013-10-03 07:22:00,
2013-10-03 00:52:00,47.0,45.0,28.12,WNW,300,3.0,7.0,91,0.00,,,0.03,,2013-10-03 07:52:00,
2013-10-03 01:12:00,47.0,45.0,28.12,WNW,288,4.0,9.0,91,0.00,,,0.03,,2013-10-03 08:12:00,
2013-10-03 01:22:00,47.0,44.0,28.13,NW,312,3.0,8.0,90,0.00,,,0.03,,2013-10-03 08:22:00,
2013-10-03 01:42:00,46.0,43.0,28.12,NNW,338,6.0,10.0,90,0.00,,,0.03,,2013-10-03 08:42:00,
2013-10-03 01:52:00,47.0,44.0,28.13,WSW,242,7.0,13.0,89,0.00,,,0.03,,2013-10-03 08:52:00,
2013-10-03 02:11:00,46.0,43.0,28.13,WNW,302,5.0,12.0,89,0.00,,,0.03,,2013-10-03 09:11:00,
2013-10-03 02:21:00,46.0,43.0,28.13,WNW,295,4.0,10.0,88,0.00,,,0.03,,2013-10-03 09:21:00,
2013-10-03 02:43:00,46.0,43.0,28.14,NW,307,8.0,14.0,88,0.00,,,0.03,,2013-10-03 09:43:00,
2013-10-03 02:53:00,45.0,42.0,28.14,NNW,327,7.0,13.0,89,0.00,,,0.03,,2013-10-03 09:53:00,
2013-10-03 03:13:00,45.0,42.0,28.15,NW,317,4.0,9.0,88,0.00,,,0.03,,2013-10-03 10:13:00,
2013-10-03 03:22:00,45.0,42.0,28.15,NW,326,9.0,16.0,88,0.00,,,0.03,,2013-10-03 10:22:00,
2013-10-03 03:43:00,45.0,41.0,28.15,WSW,239,8.0,16.0,87,0.00,,,0.03,,2013-10-03 10:43:00,
2013-10-03 03:52:00,45.0,41.0,28.15,NW,321,7.0,17.0,87,0.00,,,0.03,,2013-10-03 10:52:00,
2013-10-03 04:12:00,45.0,41.0,28.16,West,271,8.0,15.0,87,0.00,,,0.03,,2013-10-03 11:12:00,
2013-10-03 04:22:00,45.0,41.0,28.17,WNW,285,5.0,15.0,86,0.00,,,0.03,,2013-10-03 11:22:00,
2013-10-03 04:42:00,44.0,40.0,28.17,WNW,297,7.0,12.0,86,0.00,,,0.03,,2013-10-03 11:42:00,
2013-10-03 04:52:00,45.0,41.0,28.18,NW,314,5.0,9.0,85,0.00,,,0.03,,2013-10-03 11:52:00,
2013-10-03 05:12:00,45.0,41.0,28.18,WNW,302,3.0,9.0,85,0.00,,,0.03,,2013-10-03 12:12:00,
2013-10-03 05:22:00,44.0,40.0,28.19,WNW,302,2.0,8.0,85,0.00,,,0.03,,2013-10-03 12:22:00,
2013-10-03 05:42:00,44.0,40.0,28.20,WNW,303,2.0,9.0,86,0.00,,,0.03,,2013-10-03 12:42:00,
2013-10-03 05:52:00,44.0,40.0,28.20,NW,308,2.0,8.0,87,0.00,,,0.03,,2013-10-03 12:52:00,
2013-10-03 06:11:00,43.0,39.0,28.21,West,280,2.0,8.0,87,0.00,,,0.03,,2013-10-03 13:11:00,
2013-10-03 06:21:00,43.0,39.0,28.21,West,277,4.0,8.0,86,0.00,,,0.03,,2013-10-03 13:21:00,
2013-10-03 06:42:00,43.0,39.0,28.22,WNW,291,4.0,8.0,86,0.00,,,0.03,,2013-10-03 13:42:00,
2013-10-03 06:52:00,44.0,40.0,28.22,West,266,3.0,7.0,86,0.00,,,0.03,,2013-10-03 13:52:00,
2013-10-03 07:11:00,43.0,39.0,28.22,NW,321,1.0,6.0,87,0.00,,,0.03,,2013-10-03 14:11:00,
2013-10-03 07:21:00,43.0,39.0,28.23,NNW,344,3.0,7.0,87,0.00,,,0.03,,2013-10-03 14:21:00,
2013-10-03 07:42:00,43.0,39.0,28.23,West,260,3.0,8.0,87,0.00,,,0.03,,2013-10-03 14:42:00,
2013-10-03 07:52:00,43.0,39.0,28.24,NW,321,4.0,9.0,87,0.00,,,0.03,,2013-10-03 14:52:00,
2013-10-03 08:11:00,43.0,39.0,28.25,West,277,3.0,8.0,86,0.00,,,0.03,,2013-10-03 15:11:00,
2013-10-03 08:22:00,43.0,39.0,28.26,NNW,338,6.0,16.0,87,0.00,,,0.03,,2013-10-03 15:22:00,
2013-10-03 08:43:00,43.0,39.0,28.26,WSW,240,3.0,8.0,86,0.00,,,0.03,,2013-10-03 15:43:00,
2013-10-03 08:53:00,44.0,40.0,28.27,NNW,329,8.0,13.0,85,0.00,,,0.03,,2013-10-03 15:53:00,
2013-10-03 09:12:00,43.0,39.0,28.27,WNW,293,4.0,12.0,87,0.00,,,0.03,,2013-10-03 16:12:00,
2013-10-03 09:23:00,45.0,41.0,28.28,NW,314,5.0,11.0,85,0.00,,,0.03,,2013-10-03 16:23:00,
2013-10-03 09:42:00,45.0,40.0,28.28,NNW,338,6.0,16.0,84,0.00,,,0.03,,2013-10-03 16:42:00,
2013-10-03 09:53:00,46.0,41.0,28.28,NNW,330,5.0,11.0,83,0.00,,,0.03,,2013-10-03 16:53:00,
2013-10-03 10:12:00,46.0,41.0,28.28,NNW,340,5.0,9.0,83,0.00,,,0.03,,2013-10-03 17:12:00,
2013-10-03 10:22:00,47.0,42.0,28.29,WNW,288,5.0,11.0,83,0.00,,,0.03,,2013-10-03 17:22:00,
2013-10-03 10:33:00,47.0,42.0,28.29,WNW,288,5.0,11.0,83,0.00,,,0.03,,2013-10-03 17:33:00,
2013-10-03 10:42:00,47.0,42.0,28.29,WNW,288,5.0,11.0,83,0.00,,,0.03,,2013-10-03 17:42:00,
2013-10-03 10:52:00,49.0,43.0,28.29,North,351,9.0,13.0,80,0.00,,,0.03,,2013-10-03 17:52:00,
2013-10-03 11:12:00,49.0,42.0,28.29,NW,325,8.0,17.0,78,0.00,,,0.03,,2013-10-03 18:12:00,
2013-10-03 11:22:00,52.0,44.0,28.30,WNW,292,8.0,16.0,75,0.00,,,0.03,,2013-10-03 18:22:00,
2013-10-03 11:42:00,52.0,43.0,28.30,WNW,294,7.0,14.0,71,0.00,,,0.03,,2013-10-03 18:42:00,
2013-10-03 11:52:00,54.0,43.0,28.30,NW,307,7.0,14.0,67,0.00,,,0.03,,2013-10-03 18:52:00,
2013-10-03 12:11:00,54.0,42.0,28.29,WNW,283,7.0,12.0,63,0.00,,,0.03,,2013-10-03 19:11:00,
2013-10-03 12:21:00,56.0,43.0,28.29,West,278,6.0,12.0,62,0.00,,,0.03,,2013-10-03 19:21:00,
2013-10-03 12:42:00,55.0,41.0,28.29,WNW,297,8.0,14.0,59,0.00,,,0.03,,2013-10-03 19:42:00,
2013-10-03 12:52:00,56.0,41.0,28.30,WNW,302,10.0,16.0,58,0.00,,,0.03,,2013-10-03 19:52:00,
2013-10-03 13:11:00,57.0,42.0,28.30,NNW,344,7.0,12.0,58,0.00,,,0.03,,2013-10-03 20:11:00,
2013-10-03 13:21:00,58.0,42.0,28.29,NNW,332,7.0,12.0,56,0.00,,,0.03,,2013-10-03 20:21:00,
2013-10-03 13:42:00,58.0,42.0,28.28,NNW,329,5.0,9.0,55,0.00,,,0.03,,2013-10-03 20:42:00,
2013-10-03 13:52:00,59.0,41.0,28.29,NW,306,6.0,10.0,52,0.00,,,0.03,,2013-10-03 20:52:00,
2013-10-03 14:12:00,59.0,42.0,28.28,NW,319,6.0,12.0,53,0.00,,,0.03,,2013-10-03 21:12:00,
2013-10-03 14:21:00,60.0,41.0,28.28,NNW,328,7.0,10.0,50,0.00,,,0.03,,2013-10-03 21:21:00,
2013-10-03 14:43:00,60.0,42.0,28.28,NW,316,2.0,6.0,52,0.00,,,0.03,,2013-10-03 21:43:00,
2013-10-03 14:54:00,61.0,42.0,28.28,NW,308,5.0,9.0,50,0.00,,,0.03,,2013-10-03 21:54:00,
2013-10-03 15:13:00,61.0,42.0,28.27,NW,315,3.0,6.0,50,0.00,,,0.03,,2013-10-03 22:13:00,
2013-10-03 15:23:00,62.0,43.0,28.28,NW,307,2.0,5.0,49,0.00,,,0.03,,2013-10-03 22:23:00,
2013-10-03 15:43:00,62.0,43.0,28.27,North,355,3.0,6.0,49,0.00,,,0.03,,2013-10-03 22:43:00,
2013-10-03 15:54:00,62.0,40.0,28.27,NNW,330,2.0,5.0,45,0.00,,,0.03,,2013-10-03 22:54:00,
2013-10-03 16:12:00,63.0,40.0,28.27,NNW,328,3.0,5.0,43,0.00,,,0.03,,2013-10-03 23:12:00,
2013-10-03 16:22:00,64.0,40.0,28.27,NW,323,2.0,4.0,42,0.00,,,0.03,,2013-10-03 23:22:00,
2013-10-03 16:43:00,63.0,41.0,28.27,NW,309,2.0,5.0,45,0.00,,,0.03,,2013-10-03 23:43:00,
2013-10-03 16:52:00,64.0,42.0,28.27,North,359,1.0,4.0,44,0.00,,,0.03,,2013-10-03 23:52:00,
2013-10-03 17:12:00,65.0,41.0,28.27,NW,307,1.0,2.0,42,0.00,,,0.03,,2013-10-04 00:12:00,
2013-10-03 17:21:00,65.0,41.0,28.27,WNW,299,1.0,2.0,41,0.00,,,0.03,,2013-10-04 00:21:00,
2013-10-03 17:42:00,64.0,40.0,28.27,NW,321,1.0,3.0,42,0.00,,,0.03,,2013-10-04 00:42:00,
2013-10-03 17:52:00,63.0,41.0,28.27,WNW,297,2.0,4.0,45,0.00,,,0.03,,2013-10-04 00:52:00,
2013-10-03 18:12:00,62.0,42.0,28.28,WNW,285,1.0,4.0,47,0.00,,,0.03,,2013-10-04 01:12:00,
2013-10-03 18:21:00,60.0,39.0,28.28,WNW,284,2.0,5.0,45,0.00,,,0.03,,2013-10-04 01:21:00,
2013-10-03 18:42:00,60.0,39.0,28.28,WNW,282,3.0,5.0,45,0.00,,,0.03,,2013-10-04 01:42:00,
2013-10-03 18:52:00,60.0,40.0,28.28,NW,307,5.0,9.0,48,0.00,,,0.03,,2013-10-04 01:52:00,
2013-10-03 19:12:00,59.0,40.0,28.29,West,280,6.0,10.0,49,0.00,,,0.03,,2013-10-04 02:12:00,
2013-10-03 19:22:00,59.0,41.0,28.30,WNW,291,5.0,10.0,52,0.00,,,0.03,,2013-10-04 02:22:00,
2013-10-03 19:42:00,58.0,41.0,28.30,WNW,288,8.0,12.0,54,0.00,,,0.03,,2013-10-04 02:42:00,
2013-10-03 19:52:00,57.0,42.0,28.30,WNW,294,7.0,11.0,57,0.00,,,0.03,,2013-10-04 02:52:00,
2013-10-03 20:12:00,56.0,42.0,28.31,WNW,294,8.0,12.0,59,0.00,,,0.03,,2013-10-04 03:12:00,
2013-10-03 20:22:00,56.0,42.0,28.32,NW,311,8.0,15.0,60,0.00,,,0.03,,2013-10-04 03:22:00,
2013-10-03 20:44:00,55.0,41.0,28.33,NW,310,9.0,15.0,59,0.00,,,0.03,,2013-10-04 03:44:00,
2013-10-03 20:56:00,56.0,41.0,28.33,NW,309,7.0,15.0,58,0.00,,,0.03,,2013-10-04 03:56:00,
2013-10-03 21:56:00,52.0,41.0,28.35,WNW,300,10.0,15.0,65,0.00,,,0.02,,2013-10-04 04:56:00,
2013-10-03 22:16:00,51.0,40.0,28.36,NW,305,9.0,17.0,66,0.00,,,0.02,,2013-10-04 05:16:00,
2013-10-03 22:26:00,52.0,40.0,28.37,WNW,300,5.0,12.0,64,0.00,,,0.02,,2013-10-04 05:26:00,
2013-10-03 22:55:00,50.0,40.0,28.38,WNW,290,9.0,20.0,68,0.00,,,0.00,,2013-10-04 05:55:00,
2013-10-03 23:15:00,50.0,40.0,28.38,WNW,301,10.0,16.0,69,0.00,,,0.00,,2013-10-04 06:15:00,
2013-10-03 23:24:00,50.0,40.0,28.39,NNW,343,8.0,14.0,69,0.00,,,0.00,,2013-10-04 06:24:00,
2013-10-03 23:54:00,50.0,40.0,28.40,NNW,338,3.0,7.0,69,0.00,,,0.00,,2013-10-04 06:54:00,